World > North America > United States > Illinois > Howardton

Hourly Howardton, IL Regional Weather

Feedback E-mail the Weather

Quick WX

Howardton, IL Weather Maps

°F °C°F °C
Howardton Weather Map
UTC Time: 8/19/2022, 10:39
Your Time:

Howardton, IL Regional Weather

Expires:202208191100;;306042
ASUS43 KLOT 191010
RWRIL 

ILLINOIS REGIONAL WEATHER ROUNDUP
NATIONAL WEATHER SERVICE CHICAGO/ROMEOVILLE IL
500 AM CDT FRI AUG 19 2022

NOTE: "FAIR" INDICATES FEW OR NO CLOUDS BELOW 12,000 FEET WITH NO
SIGNIFICANT WEATHER AND/OR OBSTRUCTIONS TO VISIBILITY.

* THESE STATIONS ARE NOT UNDER NWS QUALITY CONTROL. THEY ALSO MAY NOT
  REPORT WEATHER SUCH AS PRECIPITATION OR FOG.


ILZ064>066-069>071-074>076-080>082-084>086-088>090-092>094-191100-
SOUTH-CENTRAL ILLINOIS
  
CITY           SKY/WX    TMP DP  RH WIND       PRES   REMARKS
CARBONDALE     PTCLDY    59  59 100 CALM      29.98S FOG              
CAIRO*           N/A     60  60  99 CALM      29.97S VSB 1            
EFFINGHAM*     CLEAR     59  59  97 CALM      30.01S                  
MARION         FOG       61  61 100 CALM      29.99F VSB 3/4          
MT. VERNON     LGT RAIN  58  58 100 CALM      29.99S FOG              
CENTRALIA*     CLEAR     58  58 100 CALM      29.98F                  
SALEM*         FOG       60  60  99 CALM      29.99S VSB 1/2          
METROPOLIS*    MOCLDY    61  60  97 CALM      29.98F                  
$$


SKY/WX - Weather  TMP - Temperature  DP - Dew Point  RH - Humidity
WIND - Wind Direction/Speed PRES - Barometric Pressure VSB - Visibility
WCI - Wind Chill Index E13G22 Wind - East Wind 13 mph/Gusts of 22 mph

Trending Headlines

Howardton Radar Loop



Howardton Quick Facts


National Two Day Weather Forecast


E-mail the Howardton Weather Forecast

Voice your opinion or tell us about page issues...